sat.trackr.live / text

‹ back to catalog

JILIN-1 GAOFEN 03D47

NORAD 54692 · 2022-167L

PAYLOAD ACTIVE UNKNOWN

§ Identity

Operator
Country
PRC
Launch date
2022-12-09
Launch site
SEAL
Launch vehicle
Mass (kg)
RCS (m²)

External: N2YO · Heavens-Above · Gunter

§ Orbital elements

Epoch: 2026-05-25T05:12:17.161920Z

Period
93.92 min
Inclination
97.6918°
Eccentricity
0.0007515
Mean motion
15.33278796 rev/d
Perigee alt
460.9 km
Apogee alt
471.2 km
Semi-major
6,844.2 km
B*
3.1552e-4
RAAN
313.8604°
Arg perigee
190.3638°
Mean anomaly
169.7450°
Rev number
19,182

§ Raw data

JILIN-1 GAOFEN 03D471 54692U 22167L   26145.21686530  .00010073  00000+0  31552-3 0  99922 54692  97.6918 313.8604 0007515 190.3638 169.7450 15.33278796191825

JSON: /api/v1/satellites/54692 · /tle

For live sub-satellite position, see the globe view (requires WebGL).

§ Visibility from observer

Set your observer location to see the next 7 days of passes ≥ 10°. The values pass through the URL so the page stays shareable.

No JS? Fill the form by hand. The geolocation button needs JavaScript.